This is the latest recevied weather packets stored in our database for station/object WD9EKA. If no packets are shown the sender has not sent any weather packets the latest 10 day(s).
| Time | Temp. | Humidity | Pressure | Rain* | Wind** | Luminosity | Snow |
|---|---|---|---|---|---|---|---|
| 1777508432 | 12.78° C | 59% | 1009.9 hPa | 0 mm | - | - | - |
| 1777508113 | 12.78° C | 61% | 1009.8 hPa | 0 mm | - | - | - |
| 1777507793 | 13.33° C | 59% | 1010 hPa | 0 mm | - | - | - |
| 1777507154 | 13.89° C | 59% | 1009.6 hPa | 0 mm | - | - | - |
| 1777506513 | 13.89° C | 59% | 1009.8 hPa | 0 mm | - | - | - |
| 1777506193 | 13.89° C | 57% | 1009.7 hPa | 0 mm | - | - | - |
| 1777505872 | 13.89° C | 58% | 1009.9 hPa | 0 mm | - | - | - |
| 1777505553 | 14.44° C | 58% | 1009.7 hPa | 0 mm | - | - | - |
| 1777505233 | 13.89° C | 59% | 1009.8 hPa | 0 mm | - | - | - |
| 1777504913 | 14.44° C | 59% | 1010 hPa | 0 mm | - | - | - |
| 1777504593 | 14.44° C | 57% | 1009.8 hPa | 0 mm | - | - | - |
| 1777503933 | 15° C | 56% | 1009.8 hPa | 0 mm | - | - | - |
| 1777503617 | 15° C | 55% | 1010 hPa | 0 mm | - | - | - |
| 1777503297 | 15° C | 54% | 1009.7 hPa | 0 mm | - | - | - |
| 1777502974 | 15° C | 59% | 1009.9 hPa | 0 mm | - | - | - |
| 1777502657 | 15° C | 58% | 1009.8 hPa | 0 mm | - | - | - |
| 1777502337 | 15° C | 57% | 1009.8 hPa | 0 mm | - | - | - |
| 1777502014 | 15° C | 60% | 1009.5 hPa | 0 mm | - | - | - |
| 1777501697 | 15° C | 59% | 1009.6 hPa | 0 mm | - | - | - |
| 1777501377 | 15° C | 60% | 1009.8 hPa | 0 mm | - | - | - |
| 1777501054 | 15° C | 59% | 1009.5 hPa | 0 mm | - | - | - |
| 1777500737 | 15.56° C | 58% | 1009.6 hPa | 0 mm | - | - | - |
| 1777500417 | 15.56° C | 58% | 1009.6 hPa | 0 mm | - | - | - |
| 1777500094 | 15.56° C | 61% | 1009.5 hPa | 0 mm | - | - | - |
| 1777499777 | 16.11° C | 58% | 1009.4 hPa | 0 mm | - | - | - |
* Rain latest hour (hover to see other rain measurements)
** Current wind speed in m/s (hover to see current wind gust speed)